Location: Newark
(35.4036°N, 80.4356°W)
Time: 05:11:25
(UTC+00:00)

ISS - Pass Details

Date: 30 July 2019
Orbit: 410 x 420 km, 51.6° (Epoch: 21 August)

Event Time Altitude Azimuth Distance (km) Brightness Sun altitude
Rises 03:40:42 0° 319° (NW) 2,366 1.2 -30.3°
Reaches altitude 10° 03:42:57 10° 330° (NNW) 1,497 -0.1 -30.5°
Enters shadow 03:43:30 14° 334° (NNW) 1,294 -0.5 -30.6°
